When you browse on this site, cookies collect data to enhance your experience and personalize the content and advertising you see.
Visit our Privacy Policy to learn more. By continuing to use the site, you agree to this use of cookies and data.
  • In Spain
  • List of Countries
  • For 7 days
  • Water Temperature
  • Satellite Maps
  • Weather Map
  • Weather Widgets
  • user-avatar
    Login

    Hourly Weather Wlora

    Today, 19 February, Tuesday

    Time Temperature Precipitation Wind Pressure Humidity
    00:00 +10°C° 0 mm 0 mps 767 mmHg 83%
    01:00 +10°C° 0 mm 0 mps 767 mmHg 82%
    02:00 +10°C° 0 mm 0 mps 767 mmHg 83%
    03:00 +10°C° 0 mm 1 mps 767 mmHg 84%
    04:00 +10°C° 0 mm 1 mps 767 mmHg 85%
    05:00 +10°C° 0 mm 1 mps 767 mmHg 85%
    06:00 +10°C° 0 mm 1 mps 767 mmHg 86%
    07:00 +10°C° 0 mm 1 mps 767 mmHg 86%
    08:00 +11°C° 0 mm 1 mps 767 mmHg 80%
    09:00 +13°C° 0 mm 2 mps 767 mmHg 74%
    10:00 +14°C° 0 mm 2 mps 767 mmHg 68%
    11:00 +15°C° 0 mm 2 mps 767 mmHg 66%
    12:00 +15°C° 0 mm 2 mps 766 mmHg 64%
    13:00 +16°C° 0 mm 2 mps 766 mmHg 63%
    14:00 +16°C° 0 mm 2 mps 766 mmHg 66%
    15:00 +15°C° 0 mm 2 mps 766 mmHg 70%
    16:00 +15°C° 0 mm 2 mps 766 mmHg 74%
    17:00 +14°C° 0 mm 2 mps 766 mmHg 80%
    18:00 +13°C° 0 mm 1 mps 766 mmHg 86%
    19:00 +12°C° 0 mm 1 mps 766 mmHg 92%
    20:00 +11°C° 0 mm 1 mps 766 mmHg 92%
    21:00 +11°C° 0 mm 1 mps 766 mmHg 93%
    22:00 +11°C° 0 mm 1 mps 766 mmHg 93%
    23:00 +11°C° 0 mm 1 mps 766 mmHg 93%

    Tomorrow, 20 February, Wednesday

    Time Temperature Precipitation Wind Pressure Humidity
    00:00 +11°C° 0 mm 1 mps 767 mmHg 92%
    01:00 +9°C° 0 mm 0 mps 767 mmHg 92%
    02:00 +9°C° 0 mm 0 mps 766 mmHg 92%
    03:00 +9°C° 0 mm 0 mps 766 mmHg 92%
    04:00 +9°C° 0 mm 0 mps 766 mmHg 93%
    05:00 +8°C° 0 mm 0 mps 766 mmHg 92%
    06:00 +9°C° 0 mm 1 mps 766 mmHg 92%
    07:00 +9°C° 0 mm 1 mps 766 mmHg 92%
    08:00 +11°C° 0 mm 1 mps 767 mmHg 84%
    09:00 +12°C° 0 mm 1 mps 767 mmHg 75%
    10:00 +14°C° 0 mm 1 mps 767 mmHg 67%
    11:00 +15°C° 0 mm 1 mps 767 mmHg 65%
    12:00 +15°C° 0 mm 2 mps 767 mmHg 62%
    13:00 +16°C° 0 mm 3 mps 767 mmHg 60%
    14:00 +16°C° 0 mm 3 mps 766 mmHg 63%
    15:00 +14°C° 0 mm 4 mps 766 mmHg 67%
    16:00 +14°C° 0 mm 4 mps 766 mmHg 70%
    17:00 +13°C° 0 mm 4 mps 767 mmHg 76%
    18:00 +12°C° 0 mm 4 mps 767 mmHg 83%
    19:00 +10°C° 0 mm 5 mps 767 mmHg 89%
    20:00 +9°C° 0 mm 5 mps 767 mmHg 89%
    21:00 +9°C° 0 mm 5 mps 768 mmHg 89%
    22:00 +9°C° 0 mm 5 mps 768 mmHg 89%
    23:00 +9°C° 0 mm 5 mps 768 mmHg 89%

    Day after tomorrow, 21 February, Thursday

    Time Temperature Precipitation Wind Pressure Humidity
    00:00 +8°C° 0 mm 5 mps 768 mmHg 88%
    01:00 +8°C° 0 mm 5 mps 768 mmHg 87%
    02:00 +8°C° 0 mm 5 mps 768 mmHg 87%
    03:00 +8°C° 0 mm 5 mps 768 mmHg 87%
    04:00 +8°C° 0 mm 5 mps 768 mmHg 87%
    05:00 +8°C° 0 mm 5 mps 768 mmHg 85%
    06:00 +8°C° 0 mm 5 mps 769 mmHg 83%
    07:00 +7°C° 0 mm 5 mps 769 mmHg 81%
    08:00 +9°C° 0 mm 5 mps 769 mmHg 73%
    09:00 +12°C° 0 mm 5 mps 769 mmHg 65%
    10:00 +14°C° 0 mm 5 mps 769 mmHg 57%
    11:00 +15°C° 0 mm 5 mps 769 mmHg 55%
    12:00 +15°C° 0 mm 5 mps 769 mmHg 53%
    13:00 +16°C° 0 mm 5 mps 769 mmHg 51%
    14:00 +16°C° 0 mm 6 mps 769 mmHg 55%
    15:00 +15°C° 0 mm 6 mps 768 mmHg 60%
    16:00 +15°C° 0 mm 6 mps 768 mmHg 64%
    17:00 +14°C° 0 mm 6 mps 768 mmHg 70%
    18:00 +11°C° 0 mm 6 mps 769 mmHg 75%
    19:00 +10°C° 0 mm 6 mps 769 mmHg 81%
    20:00 +10°C° 0 mm 5 mps 769 mmHg 81%
    21:00 +9°C° 0 mm 5 mps 769 mmHg 81%
    22:00 +9°C° 0 mm 5 mps 769 mmHg 80%
    23:00 +9°C° 0 mm 5 mps 769 mmHg 80%

    22 February, Friday

    Time Temperature Precipitation Wind Pressure Humidity
    00:00 +9°C° 0 mm 5 mps 769 mmHg 81%
    01:00 +9°C° 0 mm 5 mps 769 mmHg 81%
    02:00 +9°C° 0 mm 5 mps 768 mmHg 83%
    03:00 +8°C° 0 mm 5 mps 768 mmHg 85%
    04:00 +8°C° 0 mm 5 mps 768 mmHg 86%
    05:00 +8°C° 0 mm 5 mps 767 mmHg 87%
    06:00 +9°C° 0 mm 5 mps 767 mmHg 88%
    07:00 +9°C° 0 mm 5 mps 767 mmHg 88%
    08:00 +10°C° 0.1 mm 6 mps 767 mmHg 87%
    09:00 +11°C° 0.1 mm 6 mps 767 mmHg 86%
    10:00 +13°C° 0.1 mm 6 mps 766 mmHg 85%
    11:00 +12°C° 0.3 mm 7 mps 766 mmHg 84%
    12:00 +12°C° 0.3 mm 8 mps 765 mmHg 83%
    13:00 +13°C° 0.3 mm 8 mps 764 mmHg 82%
    14:00 +12°C° 0.5 mm 8 mps 764 mmHg 81%
    15:00 +12°C° 0.5 mm 8 mps 763 mmHg 79%
    16:00 +12°C° 0.5 mm 8 mps 762 mmHg 77%
    17:00 +11°C° 0.1 mm 8 mps 762 mmHg 81%
    18:00 +10°C° 0.1 mm 8 mps 762 mmHg 86%
    19:00 +9°C° 0.1 mm 8 mps 762 mmHg 90%
    20:00 +9°C° 0 mm 8 mps 762 mmHg 89%
    21:00 +9°C° 0 mm 7 mps 762 mmHg 88%
    22:00 +9°C° 0 mm 7 mps 762 mmHg 88%
    23:00 +9°C° 0 mm 8 mps 761 mmHg 87%

    23 February, Saturday

    Time Temperature Precipitation Wind Pressure Humidity
    00:00 +7°C° 0 mm 8 mps 761 mmHg 85%
    01:00 +7°C° 0 mm 8 mps 761 mmHg 84%
    02:00 +7°C° 0 mm 8 mps 761 mmHg 83%
    03:00 +7°C° 0 mm 9 mps 761 mmHg 82%
    04:00 +6°C° 0 mm 9 mps 760 mmHg 80%
    05:00 +6°C° 0 mm 9 mps 761 mmHg 80%
    06:00 +6°C° 0 mm 9 mps 761 mmHg 80%
    07:00 +5°C° 0 mm 9 mps 762 mmHg 81%
    08:00 +6°C° 0 mm 9 mps 762 mmHg 71%
    09:00 +7°C° 0 mm 9 mps 762 mmHg 62%
    10:00 +8°C° 0 mm 10 mps 763 mmHg 52%
    11:00 +10°C° 0 mm 9 mps 763 mmHg 51%
    12:00 +10°C° 0 mm 9 mps 763 mmHg 50%
    13:00 +10°C° 0 mm 8 mps 763 mmHg 48%
    14:00 +10°C° 0 mm 8 mps 764 mmHg 49%
    15:00 +9°C° 0 mm 8 mps 764 mmHg 50%
    16:00 +7°C° 0 mm 8 mps 764 mmHg 51%
    17:00 +6°C° 0 mm 8 mps 765 mmHg 52%
    18:00 +5°C° 0 mm 9 mps 765 mmHg 53%
    19:00 +3°C° 0 mm 9 mps 766 mmHg 54%
    20:00 +2°C° 0 mm 9 mps 766 mmHg 54%
    21:00 +2°C° 0 mm 9 mps 766 mmHg 55%
    22:00 +1°C° 0 mm 9 mps 767 mmHg 55%
    23:00 +1°C° 0 mm 9 mps 767 mmHg 52%

    24 February, Sunday

    Time Temperature Precipitation Wind Pressure Humidity
    00:00 0°C° 0 mm 9 mps 767 mmHg 50%
    01:00 0°C° 0 mm 9 mps 767 mmHg 48%
    02:00 0°C° 0 mm 9 mps 767 mmHg 44%
    03:00 0°C° 0 mm 9 mps 767 mmHg 41%
    04:00 -1°C° 0 mm 9 mps 767 mmHg 37%
    05:00 -1°C° 0 mm 9 mps 767 mmHg 37%
    06:00 -1°C° 0 mm 9 mps 767 mmHg 36%
    07:00 -1°C° 0 mm 9 mps 767 mmHg 35%
    08:00 0°C° 0 mm 8 mps 767 mmHg 32%
    09:00 +1°C° 0 mm 8 mps 767 mmHg 28%
    10:00 +3°C° 0 mm 7 mps 768 mmHg 25%
    11:00 +4°C° 0 mm 7 mps 767 mmHg 24%
    12:00 +4°C° 0 mm 7 mps 767 mmHg 24%
    13:00 +5°C° 0 mm 8 mps 767 mmHg 23%
    14:00 +5°C° 0 mm 8 mps 767 mmHg 25%
    15:00 +5°C° 0 mm 9 mps 767 mmHg 27%
    16:00 +5°C° 0 mm 9 mps 766 mmHg 29%
    17:00 +2°C° 0 mm 9 mps 767 mmHg 33%
    18:00 +1°C° 0 mm 9 mps 767 mmHg 36%
    19:00 0°C° 0 mm 9 mps 767 mmHg 40%
    20:00 0°C° 0 mm 9 mps 767 mmHg 41%
    21:00 0°C° 0 mm 8 mps 768 mmHg 43%
    22:00 0°C° 0 mm 8 mps 768 mmHg 44%
    23:00 -1°C° 0 mm 8 mps 768 mmHg 44%
    Show more